| time (UTC) | temp F | wind direction | speed knots | gust knots | rain 1hr in | rain 24hr in | rain mn in | humidity % | barometer mb |
| 20260506002554 | 79 | 165 | 4.3 | 7.8 | 0.00 | 0.00 | 0.00 | 74 | 1005.7 |
| 20260506002051 | 79 | 175 | 4.3 | 5.2 | 0.00 | 0.00 | 0.00 | 74 | 1005.6 |
| 20260506001547 | 79 | 176 | 2.6 | 7.0 | 0.00 | 0.00 | 0.00 | 74 | 1005.7 |
| 20260506001044 | 80 | 145 | 3.5 | 5.2 | 0.00 | 0.00 | 0.00 | 74 | 1005.5 |
| 20260506000542 | 80 | 158 | 2.6 | 6.1 | 0.00 | 0.00 | 0.00 | 73 | 1005.4 |
| 20260506000039 | 80 | 151 | 2.6 | 7.0 | 0.00 | 0.00 | 0.00 | 73 | 1005.3 |
| 20260505235537 | 80 | 217 | 2.6 | 5.2 | 0.00 | 0.00 | 0.00 | 73 | 1005.2 |
| 20260505235034 | 80 | 190 | 4.3 | 7.0 | 0.00 | 0.00 | 0.00 | 72 | 1005.5 |
| 20260505234531 | 80 | 159 | 2.6 | 6.1 | 0.00 | 0.00 | 0.00 | 73 | 1005.3 |
| 20260505234027 | 80 | 175 | 2.6 | 4.3 | 0.00 | 0.00 | 0.00 | 73 | 1005.5 |
| 20260505233525 | 80 | 167 | 5.2 | 8.7 | 0.00 | 0.00 | 0.00 | 72 | 1005.5 |
| 20260505233022 | 80 | 183 | 2.6 | 8.7 | 0.00 | 0.00 | 0.00 | 71 | 1005.3 |
| 20260505232520 | 81 | 193 | 3.5 | 7.8 | 0.00 | 0.00 | 0.00 | 71 | 1005.3 |
| 20260505232017 | 82 | 160 | 5.2 | 7.0 | 0.00 | 0.00 | 0.00 | 70 | 1005.3 |
| 20260505231514 | 81 | 181 | 4.3 | 8.7 | 0.00 | 0.00 | 0.00 | 71 | 1005.3 |
| 20260505231013 | 81 | 162 | 3.5 | 7.8 | 0.00 | 0.00 | 0.00 | 71 | 1005.2 |
| 20260505230510 | 81 | 143 | 6.1 | 10.4 | 0.00 | 0.00 | 0.00 | 70 | 1005.3 |
| 20260505230007 | 82 | 161 | 4.3 | 8.7 | 0.00 | 0.00 | 0.00 | 69 | 1005.3 |
| 20260505225503 | 83 | 165 | 6.1 | 9.6 | 0.00 | 0.00 | 0.00 | 68 | 1005.1 |
| 20260505224959 | 83 | 150 | 7.0 | 14.8 | 0.00 | 0.00 | 0.00 | 68 | 1005.0 |
| 20260505224456 | 83 | 170 | 4.3 | 7.8 | 0.00 | 0.00 | 0.00 | 67 | 1004.8 |
| 20260505223953 | 83 | 171 | 7.8 | 9.6 | 0.00 | 0.00 | 0.00 | 67 | 1005.2 |
| 20260505223450 | 84 | 173 | 5.2 | 7.0 | 0.00 | 0.00 | 0.00 | 68 | 1005.1 |
| 20260505222946 | 84 | 190 | 1.7 | 7.0 | 0.00 | 0.00 | 0.00 | 68 | 1005.2 |
| 20260505222443 | 83 | 169 | 5.2 | 9.6 | 0.00 | 0.00 | 0.00 | 68 | 1005.1 |
| 20260505221938 | 83 | 170 | 4.3 | 9.6 | 0.00 | 0.00 | 0.00 | 68 | 1005.1 |
| 20260505221436 | 84 | 204 | 0.9 | 7.0 | 0.00 | 0.00 | 0.00 | 68 | 1005.2 |
| 20260505220933 | 82 | 150 | 3.5 | 7.0 | 0.00 | 0.00 | 0.00 | 70 | 1005.1 |
| 20260505220430 | 83 | 185 | 3.5 | 6.1 | 0.00 | 0.00 | 0.00 | 69 | 1005.2 |
| 20260505215928 | 83 | 165 | 6.1 | 8.7 | 0.00 | 0.00 | 0.00 | 67 | 1005.3 |
| 20260505215426 | 84 | 171 | 6.1 | 7.8 | 0.00 | 0.00 | 0.00 | 66 | 1005.5 |
| 20260505214923 | 84 | 155 | 4.3 | 8.7 | 0.00 | 0.00 | 0.00 | 67 | 1005.1 |
| 20260505214421 | 84 | 165 | 2.6 | 12.2 | 0.00 | 0.00 | 0.00 | 68 | 1005.2 |
| 20260505213918 | 83 | 162 | 7.8 | 10.4 | 0.00 | 0.00 | 0.00 | 67 | 1005.2 |
| 20260505213416 | 82 | 147 | 3.5 | 7.0 | 0.00 | 0.00 | 0.00 | 68 | 1005.1 |
| 20260505212912 | 82 | 147 | 5.2 | 7.0 | 0.00 | 0.00 | 0.00 | 69 | 1005.4 |
| 20260505212409 | 82 | 161 | 4.3 | 7.8 | 0.00 | 0.00 | 0.00 | 68 | 1005.5 |
| 20260505211905 | 82 | 221 | 3.5 | 7.8 | 0.00 | 0.00 | 0.00 | 68 | 1005.5 |
| 20260505211403 | 82 | 162 | 5.2 | 5.2 | 0.00 | 0.00 | 0.00 | 68 | 1005.5 |
| 20260505210859 | 82 | 179 | 3.5 | 7.8 | 0.00 | 0.00 | 0.00 | 68 | 1005.6 |
| 20260505210356 | 82 | 161 | 2.6 | 8.7 | 0.00 | 0.00 | 0.00 | 67 | 1005.7 |
| 20260505205852 | 85 | 151 | 9.6 | 10.4 | 0.00 | 0.00 | 0.00 | 65 | 1005.6 |
| 20260505205351 | 84 | 12 | 2.6 | 5.2 | 0.00 | 0.00 | 0.00 | 66 | 1005.5 |
| 20260505204847 | 85 | 104 | 1.7 | 8.7 | 0.00 | 0.00 | 0.00 | 65 | 1005.5 |
| 20260505204345 | 85 | 149 | 5.2 | 7.0 | 0.00 | 0.00 | 0.00 | 67 | 1005.5 |
| 20260505203842 | 84 | 198 | 1.7 | 8.7 | 0.00 | 0.00 | 0.00 | 65 | 1005.5 |
| 20260505203338 | 84 | 156 | 3.5 | 5.2 | 0.00 | 0.00 | 0.00 | 66 | 1005.5 |
| 20260505202835 | 83 | 214 | 5.2 | 8.7 | 0.00 | 0.00 | 0.00 | 67 | 1005.6 |
| 20260505202331 | 81 | 162 | 5.2 | 12.2 | 0.00 | 0.00 | 0.00 | 69 | 1005.7 |
| 20260505201828 | 81 | 149 | 7.8 | 14.8 | 0.00 | 0.00 | 0.00 | 69 | 1005.8 |
| 20260505201326 | 82 | 175 | 4.3 | 12.2 | 0.00 | 0.00 | 0.00 | 68 | 1005.8 |
| 20260505200824 | 82 | 139 | 7.8 | 10.4 | 0.00 | 0.00 | 0.00 | 70 | 1005.8 |
| 20260505200320 | 82 | 196 | 3.5 | 8.7 | 0.00 | 0.00 | 0.00 | 70 | 1005.8 |
| 20260505195815 | 82 | 185 | 4.3 | 8.7 | 0.00 | 0.00 | 0.00 | 69 | 1006.0 |
| 20260505195314 | 82 | 199 | 3.5 | 11.3 | 0.00 | 0.00 | 0.00 | 70 | 1005.7 |
| 20260505194810 | 82 | 147 | 10.4 | 12.2 | 0.00 | 0.00 | 0.00 | 68 | 1005.7 |
| 20260505194308 | 81 | 183 | 3.5 | 8.7 | 0.00 | 0.00 | 0.00 | 69 | 1005.8 |
| 20260505193803 | 82 | 206 | 2.6 | 6.1 | 0.00 | 0.00 | 0.00 | 70 | 1006.0 |
| 20260505193301 | 81 | 144 | 4.3 | 4.3 | 0.00 | 0.00 | 0.00 | 70 | 1005.8 |
| 20260505192759 | 80 | 163 | 4.3 | 12.2 | 0.00 | 0.00 | 0.00 | 70 | 1005.9 |
| 20260505192256 | 81 | 149 | 2.6 | 10.4 | 0.00 | 0.00 | 0.00 | 70 | 1006.0 |
| 20260505191754 | 80 | 158 | 6.1 | 8.7 | 0.00 | 0.00 | 0.00 | 70 | 1005.9 |
| 20260505191252 | 80 | 191 | 2.6 | 12.2 | 0.00 | 0.00 | 0.00 | 70 | 1006.2 |
| 20260505190748 | 79 | 188 | 4.3 | 10.4 | 0.00 | 0.00 | 0.00 | 71 | 1006.0 |
| 20260505190243 | 80 | 153 | 5.2 | 10.4 | 0.00 | 0.00 | 0.00 | 70 | 1006.1 |
| 20260505185740 | 80 | 115 | 2.6 | 12.2 | 0.00 | 0.00 | 0.00 | 71 | 1005.9 |
| 20260505185237 | 80 | 155 | 5.2 | 9.6 | 0.00 | 0.00 | 0.00 | 71 | 1005.8 |
| 20260505184732 | 80 | 170 | 5.2 | 12.2 | 0.00 | 0.00 | 0.00 | 71 | 1005.8 |
| 20260505184230 | 80 | 174 | 4.3 | 13.9 | 0.00 | 0.00 | 0.00 | 70 | 1005.9 |
| 20260505183727 | 80 | 163 | 3.5 | 14.8 | 0.00 | 0.00 | 0.00 | 71 | 1005.9 |
| 20260505183224 | 80 | 173 | 3.5 | 10.4 | 0.00 | 0.00 | 0.00 | 71 | 1005.8 |
| 20260505182720 | 80 | 157 | 5.2 | 6.1 | 0.00 | 0.00 | 0.00 | 70 | 1005.8 |
| 20260505182218 | 80 | 248 | 3.5 | 7.8 | 0.00 | 0.00 | 0.00 | 69 | 1005.8 |
| 20260505181714 | 81 | 162 | 10.4 | 13.0 | 0.00 | 0.00 | 0.00 | 68 | 1006.0 |
| 20260505181212 | 81 | 267 | 2.6 | 6.1 | 0.00 | 0.00 | 0.00 | 69 | 1005.8 |
| 20260505180708 | 81 | 172 | 6.1 | 11.3 | 0.00 | 0.00 | 0.00 | 69 | 1005.8 |
| 20260505180205 | 80 | 171 | 4.3 | 15.6 | 0.00 | 0.00 | 0.00 | 70 | 1005.8 |
| 20260505175700 | 79 | 182 | 6.1 | 13.9 | 0.00 | 0.00 | 0.00 | 71 | 1005.7 |
| 20260505175157 | 79 | 157 | 7.0 | 19.1 | 0.00 | 0.00 | 0.00 | 70 | 1005.8 |
| 20260505174654 | 79 | 164 | 6.1 | 12.2 | 0.00 | 0.00 | 0.00 | 70 | 1006.1 |
| 20260505174150 | 80 | 168 | 6.1 | 10.4 | 0.00 | 0.00 | 0.00 | 70 | 1005.9 |
| 20260505173647 | 79 | 172 | 8.7 | 12.2 | 0.00 | 0.00 | 0.00 | 70 | 1006.2 |
| 20260505173144 | 79 | 155 | 8.7 | 12.2 | 0.00 | 0.00 | 0.00 | 70 | 1006.2 |
| 20260505172641 | 78 | 167 | 7.8 | 15.6 | 0.00 | 0.00 | 0.00 | 72 | 1006.2 |
| 20260505172138 | 79 | 167 | 5.2 | 16.5 | 0.00 | 0.00 | 0.00 | 70 | 1006.1 |
| 20260505171637 | 78 | 156 | 6.1 | 11.3 | 0.00 | 0.00 | 0.00 | 73 | 1006.4 |
| 20260505171135 | 78 | 173 | 6.1 | 11.3 | 0.00 | 0.00 | 0.00 | 71 | 1006.7 |
| 20260505170632 | 78 | 147 | 5.2 | 12.2 | 0.00 | 0.00 | 0.00 | 73 | 1006.8 |
| 20260505170128 | 77 | 166 | 8.7 | 13.0 | 0.00 | 0.00 | 0.00 | 72 | 1006.8 |
| 20260505165623 | 77 | 185 | 7.0 | 8.7 | 0.00 | 0.00 | 0.00 | 73 | 1006.7 |
| 20260505165120 | 77 | 168 | 7.8 | 12.2 | 0.00 | 0.00 | 0.00 | 73 | 1006.4 |
| 20260505164615 | 77 | 179 | 7.0 | 13.9 | 0.00 | 0.00 | 0.00 | 73 | 1006.3 |
| 20260505164113 | 77 | 174 | 7.0 | 13.9 | 0.00 | 0.00 | 0.00 | 73 | 1006.4 |
| 20260505163612 | 77 | 158 | 6.1 | 14.8 | 0.00 | 0.00 | 0.00 | 75 | 1006.0 |
| 20260505163109 | 77 | 161 | 7.8 | 15.6 | 0.00 | 0.00 | 0.00 | 73 | 1006.1 |
| 20260505162606 | 77 | 166 | 2.6 | 10.4 | 0.00 | 0.00 | 0.00 | 74 | 1006.0 |
| 20260505162104 | 76 | 220 | 1.7 | 7.8 | 0.00 | 0.00 | 0.00 | 76 | 1005.9 |
| 20260505161600 | 76 | 180 | 6.1 | 14.8 | 0.00 | 0.00 | 0.00 | 75 | 1006.0 |
| 20260505161058 | 76 | 185 | 7.0 | 12.2 | 0.00 | 0.00 | 0.00 | 76 | 1005.9 |
| 20260505160555 | 76 | 165 | 7.8 | 13.0 | 0.00 | 0.00 | 0.00 | 78 | 1005.8 |
| 20260505153032 | 75 | 179 | 7.0 | 13.0 | 0.00 | 0.00 | 0.00 | 77 | 1006.3 |
| 20260505152529 | 74 | 171 | 6.1 | 10.4 | 0.00 | 0.00 | 0.00 | 78 | 1006.1 |
| 20260505152025 | 74 | 165 | 7.8 | 13.9 | 0.00 | 0.00 | 0.00 | 78 | 1006.0 |
| 20260505151520 | 73 | 226 | 4.3 | 11.3 | 0.00 | 0.00 | 0.00 | 79 | 1006.2 |
| 20260505151017 | 74 | 173 | 4.3 | 14.8 | 0.00 | 0.00 | 0.00 | 78 | 1006.0 |
| 20260505150514 | 74 | 177 | 6.1 | 7.8 | 0.00 | 0.00 | 0.00 | 80 | 1005.9 |
| 20260505140439 | 71 | 166 | 4.3 | 11.3 | 0.00 | 0.00 | 0.00 | 82 | 1006.2 |
| 20260505124852 | 70 | 176 | 1.7 | 10.4 | 0.00 | 0.00 | 0.00 | 84 | 1006.0 |
| 20260505124349 | 70 | 167 | 3.5 | 11.3 | 0.00 | 0.00 | 0.00 | 84 | 1005.9 |
| 20260505123845 | 70 | 154 | 6.1 | 13.0 | 0.00 | 0.00 | 0.00 | 84 | 1005.7 |
| 20260505123342 | 70 | 181 | 4.3 | 11.3 | 0.00 | 0.00 | 0.00 | 84 | 1005.9 |
| 20260505122838 | 70 | 148 | 5.2 | 8.7 | 0.00 | 0.00 | 0.00 | 84 | 1005.9 |
| 20260505122336 | 70 | 143 | 6.1 | 13.9 | 0.00 | 0.00 | 0.00 | 84 | 1005.7 |
| 20260505121832 | 70 | 179 | 5.2 | 8.7 | 0.00 | 0.00 | 0.00 | 84 | 1005.6 |
| 20260505121329 | 70 | 168 | 7.0 | 14.8 | 0.00 | 0.00 | 0.00 | 84 | 1005.6 |
| 20260505120825 | 70 | 164 | 4.3 | 9.6 | 0.00 | 0.00 | 0.00 | 84 | 1005.7 |
| 20260505120321 | 70 | 148 | 9.6 | 14.8 | 0.00 | 0.00 | 0.00 | 84 | 1005.4 |
| 20260505115820 | 70 | 139 | 6.1 | 10.4 | 0.00 | 0.00 | 0.00 | 83 | 1005.3 |
| 20260505115317 | 70 | 148 | 7.0 | 12.2 | 0.00 | 0.00 | 0.00 | 83 | 1005.4 |
| 20260505114815 | 70 | 159 | 5.2 | 7.8 | 0.00 | 0.00 | 0.00 | 83 | 1005.4 |
| 20260505114311 | 70 | 126 | 4.3 | 13.9 | 0.00 | 0.00 | 0.00 | 83 | 1005.4 |
| 20260505113808 | 70 | 137 | 8.7 | 12.2 | 0.00 | 0.00 | 0.00 | 83 | 1005.1 |
| 20260505113304 | 70 | 151 | 4.3 | 8.7 | 0.00 | 0.00 | 0.00 | 83 | 1005.1 |
| 20260505112800 | 70 | 160 | 3.5 | 13.0 | 0.00 | 0.00 | 0.00 | 83 | 1005.1 |
| 20260505112258 | 70 | 147 | 8.7 | 12.2 | 0.00 | 0.00 | 0.00 | 83 | 1005.3 |
| 20260505111758 | 70 | 172 | 6.1 | 13.0 | 0.00 | 0.00 | 0.00 | 83 | 1005.3 |
| 20260505111254 | 70 | 154 | 6.1 | 13.0 | 0.00 | 0.00 | 0.00 | 82 | 1005.2 |
| 20260505110750 | 70 | 171 | 3.5 | 13.0 | 0.00 | 0.00 | 0.00 | 83 | 1005.5 |
| 20260505110248 | 70 | 176 | 7.8 | 12.2 | 0.00 | 0.00 | 0.00 | 82 | 1005.2 |
| 20260505101722 | 70 | 168 | 7.0 | 15.6 | 0.00 | 0.00 | 0.00 | 82 | 1005.6 |
| 20260505101218 | 70 | 138 | 7.8 | 11.3 | 0.00 | 0.00 | 0.00 | 82 | 1005.6 |
| 20260505100715 | 70 | 173 | 2.6 | 8.7 | 0.00 | 0.00 | 0.00 | 82 | 1005.7 |
| 20260505100212 | 70 | 163 | 7.0 | 9.6 | 0.00 | 0.00 | 0.00 | 82 | 1005.5 |
| 20260505095707 | 70 | 155 | 7.0 | 11.3 | 0.00 | 0.00 | 0.00 | 82 | 1005.5 |
| 20260505095205 | 70 | 139 | 7.0 | 14.8 | 0.00 | 0.00 | 0.00 | 82 | 1005.5 |
| 20260505094700 | 70 | 168 | 3.5 | 13.0 | 0.00 | 0.00 | 0.00 | 82 | 1005.6 |
| 20260505094157 | 70 | 152 | 2.6 | 14.8 | 0.00 | 0.00 | 0.00 | 82 | 1005.6 |
| 20260505093653 | 70 | 139 | 7.8 | 10.4 | 0.00 | 0.00 | 0.00 | 82 | 1005.4 |
| 20260505093151 | 70 | 149 | 5.2 | 9.6 | 0.00 | 0.00 | 0.00 | 82 | 1005.4 |
| 20260505092648 | 70 | 151 | 9.6 | 13.9 | 0.00 | 0.00 | 0.00 | 82 | 1005.6 |
| 20260505092147 | 70 | 174 | 5.2 | 14.8 | 0.00 | 0.00 | 0.00 | 82 | 1005.7 |
| 20260505091643 | 70 | 159 | 7.8 | 12.2 | 0.00 | 0.00 | 0.00 | 82 | 1005.5 |
| 20260505091141 | 70 | 153 | 5.2 | 9.6 | 0.00 | 0.00 | 0.00 | 82 | 1005.8 |
| 20260505090638 | 70 | 171 | 3.5 | 13.9 | 0.00 | 0.00 | 0.00 | 82 | 1005.6 |
| 20260505090137 | 70 | 149 | 2.6 | 11.3 | 0.00 | 0.00 | 0.00 | 82 | 1005.7 |
| 20260505085634 | 70 | 164 | 7.8 | 13.9 | 0.00 | 0.00 | 0.00 | 82 | 1005.8 |
| 20260505085132 | 70 | 139 | 8.7 | 12.2 | 0.00 | 0.00 | 0.00 | 82 | 1005.3 |
| 20260505084629 | 70 | 166 | 6.1 | 13.9 | 0.00 | 0.00 | 0.00 | 82 | 1005.5 |
| 20260505084128 | 70 | 151 | 4.3 | 13.0 | 0.00 | 0.00 | 0.00 | 82 | 1005.5 |
| 20260505083625 | 70 | 156 | 5.2 | 13.9 | 0.00 | 0.00 | 0.00 | 82 | 1005.3 |
| 20260505083121 | 70 | 169 | 11.3 | 13.0 | 0.00 | 0.00 | 0.00 | 82 | 1005.5 |
| 20260505082617 | 70 | 149 | 7.0 | 13.0 | 0.00 | 0.00 | 0.00 | 82 | 1005.3 |
| 20260505082114 | 69 | 149 | 11.3 | 12.2 | 0.00 | 0.00 | 0.00 | 82 | 1005.6 |
| 20260505081610 | 70 | 158 | 7.8 | 13.0 | 0.00 | 0.00 | 0.00 | 82 | 1005.7 |
| 20260505081108 | 70 | 174 | 6.1 | 13.0 | 0.00 | 0.00 | 0.00 | 81 | 1005.8 |
| 20260505080603 | 70 | 177 | 7.8 | 14.8 | 0.00 | 0.00 | 0.00 | 81 | 1005.9 |
| 20260505080101 | 70 | 168 | 7.0 | 12.2 | 0.00 | 0.00 | 0.00 | 81 | 1006.1 |
| 20260505075556 | 70 | 154 | 5.2 | 11.3 | 0.00 | 0.00 | 0.00 | 81 | 1005.9 |
| 20260505075053 | 70 | 155 | 6.1 | 13.9 | 0.00 | 0.00 | 0.00 | 81 | 1006.1 |
| 20260505074550 | 70 | 155 | 4.3 | 15.6 | 0.00 | 0.00 | 0.00 | 80 | 1006.1 |
| 20260505074047 | 70 | 143 | 8.7 | 12.2 | 0.00 | 0.00 | 0.00 | 80 | 1006.0 |
| 20260505073544 | 70 | 141 | 7.0 | 13.0 | 0.00 | 0.00 | 0.00 | 80 | 1006.0 |
| 20260505073044 | 70 | 144 | 10.4 | 11.3 | 0.00 | 0.00 | 0.00 | 80 | 1006.1 |
| 20260505072538 | 70 | 144 | 4.3 | 12.2 | 0.00 | 0.00 | 0.00 | 79 | 1006.1 |
| 20260505072035 | 70 | 143 | 7.0 | 12.2 | 0.00 | 0.00 | 0.00 | 79 | 1006.0 |
| 20260505071530 | 70 | 151 | 3.5 | 10.4 | 0.00 | 0.00 | 0.00 | 79 | 1006.2 |
| 20260505071029 | 70 | 165 | 6.1 | 18.2 | 0.00 | 0.00 | 0.00 | 78 | 1006.0 |
| 20260505070526 | 71 | 143 | 11.3 | 15.6 | 0.00 | 0.00 | 0.00 | 78 | 1006.1 |
| 20260505070022 | 71 | 156 | 7.0 | 14.8 | 0.00 | 0.00 | 0.00 | 78 | 1006.2 |
| 20260505065518 | 71 | 171 | 6.1 | 11.3 | 0.00 | 0.00 | 0.00 | 78 | 1006.2 |
| 20260505065014 | 71 | 152 | 7.8 | 10.4 | 0.00 | 0.00 | 0.00 | 78 | 1006.4 |
| 20260505064511 | 71 | 152 | 7.8 | 9.6 | 0.00 | 0.00 | 0.00 | 77 | 1006.4 |
| 20260505064010 | 71 | 160 | 3.5 | 11.3 | 0.00 | 0.00 | 0.00 | 77 | 1006.6 |
| 20260505063507 | 71 | 164 | 3.5 | 12.2 | 0.00 | 0.00 | 0.00 | 76 | 1006.7 |
| 20260505063008 | 71 | 178 | 5.2 | 11.3 | 0.00 | 0.00 | 0.00 | 76 | 1006.8 |
| 20260505062505 | 71 | 161 | 5.2 | 17.4 | 0.00 | 0.00 | 0.00 | 76 | 1006.7 |
| 20260505062002 | 71 | 165 | 4.3 | 13.0 | 0.00 | 0.00 | 0.00 | 76 | 1006.5 |
| 20260505061500 | 71 | 146 | 7.8 | 15.6 | 0.00 | 0.00 | 0.00 | 75 | 1006.6 |
| 20260505060957 | 71 | 167 | 7.0 | 12.2 | 0.00 | 0.00 | 0.00 | 75 | 1006.9 |
| 20260505060454 | 71 | 144 | 9.6 | 13.9 | 0.00 | 0.00 | 0.00 | 75 | 1006.6 |
| 20260505055950 | 71 | 131 | 4.3 | 11.3 | 0.00 | 0.00 | 0.00 | 75 | 1006.7 |
| 20260505055446 | 72 | 221 | 5.2 | 12.2 | 0.00 | 0.00 | 0.00 | 74 | 1006.7 |
| 20260505054943 | 72 | 178 | 7.8 | 12.2 | 0.00 | 0.00 | 0.00 | 74 | 1006.7 |
| 20260505054441 | 72 | 154 | 6.1 | 14.8 | 0.00 | 0.00 | 0.00 | 74 | 1006.7 |
| 20260505053938 | 72 | 169 | 7.0 | 14.8 | 0.00 | 0.00 | 0.00 | 73 | 1006.9 |
| 20260505053435 | 72 | 151 | 8.7 | 14.8 | 0.00 | 0.00 | 0.00 | 74 | 1007.0 |
| 20260505052932 | 72 | 181 | 7.0 | 14.8 | 0.00 | 0.00 | 0.00 | 73 | 1006.9 |
| 20260505052429 | 72 | 172 | 11.3 | 15.6 | 0.00 | 0.00 | 0.00 | 73 | 1006.9 |
| 20260505051926 | 72 | 141 | 12.2 | 13.9 | 0.00 | 0.00 | 0.00 | 73 | 1007.0 |
| 20260505051423 | 72 | 140 | 6.1 | 13.9 | 0.00 | 0.00 | 0.00 | 73 | 1007.1 |
| 20260505050921 | 72 | 140 | 7.8 | 13.0 | 0.00 | 0.00 | 0.00 | 73 | 1007.0 |
| 20260505050420 | 72 | 172 | 5.2 | 13.0 | 0.00 | 0.00 | 0.00 | 73 | 1007.1 |
| 20260505041347 | 72 | 144 | 6.1 | 9.6 | 0.00 | 0.00 | 0.00 | 71 | 1007.4 |
| 20260505040844 | 72 | 140 | 7.0 | 11.3 | 0.00 | 0.00 | 0.00 | 71 | 1007.6 |
| 20260505040342 | 71 | 172 | 5.2 | 8.7 | 0.00 | 0.00 | 0.00 | 71 | 1007.6 |
| 20260505035838 | 72 | 123 | 5.2 | 9.6 | 0.00 | 0.00 | 0.00 | 71 | 1007.4 |
| 20260505035334 | 72 | 139 | 4.3 | 12.2 | 0.00 | 0.00 | 0.00 | 70 | 1007.5 |
| 20260505034832 | 72 | 134 | 13.0 | 13.0 | 0.00 | 0.00 | 0.00 | 70 | 1007.4 |
| 20260505034328 | 71 | 160 | 5.2 | 7.8 | 0.00 | 0.00 | 0.00 | 71 | 1007.7 |
| 20260505033825 | 72 | 164 | 7.0 | 10.4 | 0.00 | 0.00 | 0.00 | 70 | 1007.5 |
| 20260505033322 | 72 | 150 | 6.1 | 7.8 | 0.00 | 0.00 | 0.00 | 70 | 1007.7 |
| 20260505032820 | 71 | 142 | 7.8 | 10.4 | 0.00 | 0.00 | 0.00 | 70 | 1007.5 |
| 20260505032316 | 71 | 138 | 8.7 | 10.4 | 0.00 | 0.00 | 0.00 | 70 | 1007.6 |
| 20260505031814 | 72 | 140 | 4.3 | 12.2 | 0.00 | 0.00 | 0.00 | 69 | 1007.7 |
| 20260505031310 | 72 | 140 | 4.3 | 9.6 | 0.00 | 0.00 | 0.00 | 69 | 1007.8 |
| 20260505030807 | 72 | 127 | 7.8 | 8.7 | 0.00 | 0.00 | 0.00 | 69 | 1007.7 |
| 20260505030303 | 72 | 119 | 5.2 | 8.7 | 0.00 | 0.00 | 0.00 | 69 | 1007.9 |
| 20260505025758 | 72 | 128 | 5.2 | 8.7 | 0.00 | 0.00 | 0.00 | 68 | 1007.8 |
| 20260505025256 | 72 | 153 | 2.6 | 8.7 | 0.00 | 0.00 | 0.00 | 68 | 1007.5 |
| 20260505024754 | 72 | 147 | 5.2 | 7.8 | 0.00 | 0.00 | 0.00 | 67 | 1007.7 |
| 20260505024252 | 73 | 127 | 5.2 | 11.3 | 0.00 | 0.00 | 0.00 | 67 | 1007.6 |
| 20260505023749 | 72 | 146 | 6.1 | 9.6 | 0.00 | 0.00 | 0.00 | 67 | 1007.5 |
| 20260505023246 | 72 | 158 | 4.3 | 8.7 | 0.00 | 0.00 | 0.00 | 68 | 1007.3 |
| 20260505022743 | 72 | 167 | 5.2 | 9.6 | 0.00 | 0.00 | 0.00 | 67 | 1007.5 |
| 20260505022240 | 72 | 159 | 4.3 | 12.2 | 0.00 | 0.00 | 0.00 | 68 | 1007.5 |
| 20260505021737 | 72 | 154 | 3.5 | 10.4 | 0.00 | 0.00 | 0.00 | 68 | 1007.5 |
| 20260505021234 | 72 | 134 | 7.0 | 9.6 | 0.00 | 0.00 | 0.00 | 68 | 1007.5 |
| 20260505020729 | 72 | 149 | 5.2 | 8.7 | 0.00 | 0.00 | 0.00 | 68 | 1007.4 |
| 20260505020225 | 72 | 134 | 4.3 | 8.7 | 0.00 | 0.00 | 0.00 | 67 | 1007.5 |
| 20260505015723 | 72 | 145 | 4.3 | 7.8 | 0.00 | 0.00 | 0.00 | 67 | 1007.5 |
| 20260505015219 | 72 | 152 | 4.3 | 7.0 | 0.00 | 0.00 | 0.00 | 67 | 1007.8 |
| 20260505014716 | 73 | 141 | 6.1 | 9.6 | 0.00 | 0.00 | 0.00 | 66 | 1007.6 |
| 20260505014214 | 73 | 150 | 4.3 | 6.1 | 0.00 | 0.00 | 0.00 | 66 | 1007.7 |
| 20260505013710 | 73 | 148 | 3.5 | 6.1 | 0.00 | 0.00 | 0.00 | 66 | 1007.4 |
| 20260505013207 | 73 | 140 | 7.8 | 8.7 | 0.00 | 0.00 | 0.00 | 65 | 1007.5 |
| 20260505012706 | 73 | 143 | 1.7 | 6.1 | 0.00 | 0.00 | 0.00 | 65 | 1007.7 |
| 20260505012203 | 73 | 162 | 4.3 | 8.7 | 0.00 | 0.00 | 0.00 | 64 | 1007.6 |
| 20260505011658 | 74 | 144 | 4.3 | 7.8 | 0.00 | 0.00 | 0.00 | 64 | 1007.3 |
| 20260505011155 | 74 | 151 | 7.0 | 7.8 | 0.00 | 0.00 | 0.00 | 63 | 1007.4 |
| 20260505010651 | 74 | 163 | 5.2 | 7.0 | 0.00 | 0.00 | 0.00 | 63 | 1007.6 |
| 20260505010143 | 74 | 173 | 4.3 | 8.7 | 0.00 | 0.00 | 0.00 | 63 | 1007.4 |
| 20260505005639 | 74 | 165 | 2.6 | 7.8 | 0.00 | 0.00 | 0.00 | 63 | 1007.5 |
| 20260505005136 | 74 | 181 | 5.2 | 9.6 | 0.00 | 0.00 | 0.00 | 62 | 1007.4 |
| 20260505004633 | 75 | 143 | 3.5 | 7.8 | 0.00 | 0.00 | 0.00 | 62 | 1007.5 |
| 20260505004129 | 75 | 141 | 3.5 | 8.7 | 0.00 | 0.00 | 0.00 | 61 | 1007.5 |
| 20260505003627 | 75 | 183 | 6.1 | 12.2 | 0.00 | 0.00 | 0.00 | 60 | 1007.4 |
| 20260505003124 | 75 | 119 | 4.3 | 7.8 | 0.00 | 0.00 | 0.00 | 60 | 1007.7 |